Decimomannu, Italy

10:46 AM CET on November 20, 2017 (GMT +0100)
Decimomannu Mil

Weather History for LIED - November, 2012

Change the Weather History Date:

Saturday, November 24, 2012

  Actual Average Record
Temperature  
Mean Temperature 56 °F -  
Max Temperature 69 °F 60 °F 73 °F (2014)
Min Temperature 44 °F 43 °F 33 °F (2005)
Degree Days  
Heating Degree Days 8    
Growing Degree Days 6 (Base 50)    
Moisture  
Dew Point 49 °F    
Average Humidity 81    
Maximum Humidity 88    
Minimum Humidity 58    
Precipitation  
Precipitation 0.00 in 0.08 in - ()
Sea Level Pressure  
Sea Level Pressure 30.20 in    
Wind  
Wind Speed 3 mph ()    
Max Wind Speed 9 mph    
Max Gust Speed -    
Visibility 5.5 miles    
Events Fog    
Averages and records for this station are not official NWS values.
T = Trace of Precipitation, MM = Missing Value Source: Averaged Metar Reports

Daily Weather History Graph

Daily Weather History Graph

Search for Another Location

Airport or City:

Trip Planner

Search our weather history database for the weather conditions in past years. The results will help you decide how hot, cold, wet, or windy it might be!

Date:

Astronomy

Nov. 24, 2012 Rise Set
Actual Time 7:17 AM CET 5:03 PM CET
Civil Twilight 6:48 AM CET 5:32 PM CET
Nautical Twilight 6:15 AM CET 6:05 PM CET
Astronomical Twilight 5:43 AM CET 6:37 PM CET
Moon 2:39 PM CET (11/24) 3:20 AM CET (11/24)
Length of Visible Light 10h 44m
Length of Day
9h 45m
Waxing Gibbous, 85% of the Moon is Illuminated
Nov 24
Waxing Gibbous
Nov 28
Full
Dec 6
Last Quarter
Dec 13
New
Dec 20
First Quarter

Hourly Weather History & Observations

Time (CET) Temp. Dew Point Humidity Pressure Visibility Wind Dir Wind Speed Gust Speed Precip Events Conditions
12:55 AM 50.0 °F 44.6 °F 82% 30.21 in 5.0 mi NNE 2.3 mph - N/A   Partly Cloudy
1:00 AM 50 °F 45 °F 76% 30.22 in 5 mi NNE 2.3 mph - -   Mist
1:55 AM 48.2 °F 42.8 °F 82% 30.21 in 5.0 mi WNW 2.3 mph - N/A   Partly Cloudy
2:55 AM 48.2 °F 42.8 °F 82% 30.21 in 5.0 mi NNW 3.5 mph - N/A   Partly Cloudy
3:55 AM 46.4 °F 41.0 °F 81% 30.21 in 5.0 mi NW 1.2 mph - N/A   Partly Cloudy
4:00 AM 46 °F 42 °F 79% 30.22 in 5 mi NW 1.2 mph - -   Mist
5:55 AM 44.6 °F 39.2 °F 81% 30.21 in 3.1 mi NNW 1.2 mph - N/A   Scattered Clouds
6:33 AM 44.6 °F 39.2 °F 81% 30.21 in 1.2 mi West 1.2 mph - N/A   Scattered Clouds
6:55 AM 44.6 °F 39.2 °F 81% 30.21 in 0.9 mi Calm Calm - N/A Fog Patches of Fog
7:00 AM 44 °F 39 °F 78% 30.22 in 0 mi Calm Calm - - Fog Partial Fog
7:10 AM 44.6 °F 39.2 °F 81% 30.21 in 0.4 mi WNW 1.2 mph - N/A Fog Fog
8:55 AM 50.0 °F 44.6 °F 82% 30.21 in 5.0 mi NNW 2.3 mph - N/A   Unknown
9:55 AM 53.6 °F 50.0 °F 88% 30.21 in - NNW 2.3 mph - N/A   Clear
10:00 AM 54 °F 49 °F 79% 30.23 in 7 mi NNW 2.3 mph - -   Partly Cloudy
10:55 AM 59.0 °F 53.6 °F 82% 30.21 in 6.2 mi WNW 2.3 mph - N/A   Partly Cloudy
11:55 AM 64.4 °F 57.2 °F 77% 30.21 in 6.2 mi Calm Calm - N/A   Partly Cloudy
1:00 PM 69 °F 58 °F 58% 30.21 in 12 mi South 6.9 mph - -   Partly Cloudy
1:55 PM 68.0 °F 57.2 °F 68% 30.18 in 6.2 mi SSE 9.2 mph - N/A   Scattered Clouds
2:55 PM 68.0 °F 57.2 °F 68% 30.18 in 6.2 mi SSE 9.2 mph - N/A   Scattered Clouds
3:55 PM 66.2 °F 59.0 °F 78% 30.15 in 6.2 mi SE 9.2 mph - N/A   Scattered Clouds
4:00 PM 66 °F 60 °F 74% 30.18 in 12 mi SE 9.2 mph - -   Partly Cloudy
4:55 PM 62.6 °F 59.0 °F 88% 30.15 in 6.2 mi SE 6.9 mph - N/A   Scattered Clouds
5:55 PM 59.0 °F 55.4 °F 88% 30.15 in 6.2 mi SE 6.9 mph - N/A   Scattered Clouds
6:55 PM 57.2 °F 53.6 °F 88% 30.18 in - ESE 4.6 mph - N/A   Clear
7:00 PM 57 °F 54 °F 85% 30.19 in 7 mi ESE 4.6 mph - -  
7:55 PM 55.4 °F 51.8 °F 88% 30.18 in - ENE 1.2 mph - N/A   Clear
8:55 PM 51.8 °F 48.2 °F 88% 30.18 in 6.2 mi ENE 2.3 mph - N/A   Partly Cloudy
9:55 PM 51.8 °F 48.2 °F 88% 30.18 in 6.2 mi NE 3.5 mph - N/A   Partly Cloudy
10:00 PM 52 °F 47 °F 79% 30.21 in 6 mi NE 3.5 mph - -   Scattered Clouds
10:55 PM 50.0 °F 46.4 °F 87% 30.21 in 6.2 mi NE 1.2 mph - N/A   Partly Cloudy
11:55 PM 50.0 °F 44.6 °F 82% 30.18 in 6.2 mi Calm Calm - N/A   Partly Cloudy